1505815200.54,56313,14.38,73508.0,1.25,0.41,0.41,0,*79
1505815201.78,56314,14.38,73508.3,1.25,0.47,0.47,0,*7E
1505815203.02,56315,14.31,73504.8,1.25,0.37,0.41,0,*7E
1505815204.24,56316,14.31,73504.0,1.23,0.47,0.47,0,*7A
1505815205.48,56317,14.31,73506.5,1.25,0.29,0.29,0,*7D
1505815206.7,56318,14.31,73508.0,1.23,0.29,0.37,0,*7B
1505815207.92,56319,14.31,73504.8,1.23,0.37,0.41,0,*74
1505815209.16,56320,14.31,73506.5,1.25,0.47,0.51,0,*7E
1505815210.4,56321,14.31,73508.3,1.21,0.63,0.59,0,*75
1505815211.64,56322,14.31,73506.8,1.21,0.63,0.59,0,*76
1505815212.89,56323,14.31,73506.0,1.21,0.47,0.47,0,*7E
1505815214.11,56324,14.31,73506.3,1.23,0.47,0.47,0,*7B
1505815215.36,56325,14.38,73508.0,1.25,0.47,0.55,0,*7F
1505815216.58,56326,14.38,73508.0,1.23,0.51,0.51,0,*79
1505815217.83,56327,14.31,73504.8,1.25,0.55,0.55,0,*7E
1505815219.06,56328,14.31,73506.3,1.23,0.55,0.55,0,*77
1505815220.28,56329,14.31,73508.8,1.23,0.51,0.51,0,*76
1505815221.51,56330,14.38,73510.0,1.23,0.51,0.51,0,*7E
1505815222.73,56331,14.31,73506.0,1.23,0.41,0.41,0,*7F
1505815223.94,56332,14.38,73508.5,1.23,0.37,0.41,0,*7D
1505815225.15,56333,14.31,73506.5,1.23,0.37,0.41,0,*7C
1505815226.38,56334,14.38,73510.0,1.23,0.41,0.47,0,*7C
1505815227.56,56335,14.31,73508.5,1.21,0.43,0.43,0,*79
1505815228.79,56336,14.31,73504.3,1.17,0.09,0.21,0,*45
1505815229.95,56337,14.31,73506.3,1.23,0.05,0.01,0,*7D
1505815231.2,56338,14.38,73508.5,1.21,0.21,0.21,0,*74
1505815232.43,56339,14.38,73508.8,1.21,0.37,0.25,0,*76
1505815233.68,56340,14.31,73506.5,1.17,0.29,0.21,0,*76
1505815234.92,56341,14.31,73504.0,1.17,0.29,0.29,0,*7F
1505815236.16,56342,14.38,73508.3,1.17,0.41,0.41,0,*7C
1505815237.4,56343,14.31,73506.8,1.17,0.41,0.41,0,*7D
1505815238.59,56344,14.31,73504.3,1.17,0.43,0.43,0,*7A
1505815239.81,56345,14.38,73508.5,1.17,0.43,0.47,0,*7F
1505815241.0,56346,14.31,73506.0,1.17,0.43,0.43,0,*78
1505815242.24,56347,14.31,73506.8,1.17,0.29,0.29,0,*79
1505815243.49,56348,14.31,73506.5,1.17,0.21,0.21,0,*76
1505815244.73,56349,14.31,73506.3,1.17,0.29,0.29,0,*77
1505815245.96,56350,14.31,73508.3,1.17,0.17,0.17,0,*7F
1505815247.21,56351,14.31,73506.8,1.17,0.29,0.33,0,*75
1505815248.42,56352,14.38,73508.3,1.15,0.41,0.41,0,*7F
1505815249.62,56353,14.31,73508.3,1.15,0.43,0.47,0,*7A
1505815250.82,56354,14.31,73508.8,1.15,0.41,0.43,0,*7B
1505815252.02,56355,14.38,73510.5,1.15,0.41,0.43,0,*7A
1505815253.22,56356,14.38,73508.5,1.15,0.41,0.43,0,*79
1505815254.44,56357,14.38,73510.8,1.15,0.33,0.41,0,*7F
1505815255.66,56358,14.31,73504.5,1.15,0.41,0.41,0,*75
1505815256.88,56359,14.31,73506.0,1.15,0.33,0.41,0,*71
1505815258.1,56360,14.31,73506.5,1.15,0.17,0.21,0,*7B
1505815259.29,56361,14.31,73508.0,1.15,0.09,0.17,0,*40
1505815260.52,56362,14.31,73504.8,1.15,0.21,0.29,0,*74
1505815261.76,56363,14.31,73510.3,1.13,0.37,0.37,0,*7B
1505815263.01,56364,14.31,73508.0,1.13,0.37,0.37,0,*7C
1505815264.22,56365,14.31,73508.8,1.15,0.33,0.33,0,*7B
1505815265.43,56366,14.31,73504.8,1.15,0.21,0.09,0,*42
1505815266.66,56367,14.38,73510.3,1.13,0.17,0.13,0,*7B
1505815267.86,56368,14.31,73508.3,1.13,0.05,0.05,0,*70
1505815269.11,56369,14.31,73504.5,1.13,0.37,0.37,0,*71
1505815270.35,56370,14.31,73504.5,1.13,0.29,0.37,0,*76
1505815271.6,56371,14.31,73508.8,1.13,0.37,0.37,0,*78
1505815272.82,56372,14.31,73504.0,1.15,0.41,0.41,0,*7D
1505815274.07,56373,14.31,73506.8,1.13,0.29,0.29,0,*7A
1505815275.31,56374,14.31,73504.5,1.13,0.25,0.29,0,*71
1505815276.56,56375,14.31,73508.8,1.13,0.37,0.37,0,*7C
1505815277.8,56376,14.31,73508.3,1.13,0.41,0.41,0,*7F
1505815279.04,56377,14.31,73504.8,1.13,0.41,0.41,0,*7E
1505815280.29,56378,14.31,73506.8,1.13,0.29,0.37,0,*7E
1505815281.53,56379,14.31,73506.8,1.13,0.37,0.41,0,*71
1505815282.73,56380,14.31,73504.8,1.13,0.43,0.43,0,*76
1505815283.97,56381,14.31,73506.3,1.13,0.41,0.41,0,*77
1505815285.2,56382,14.31,73502.3,1.15,0.47,0.47,0,*72
1505815286.44,56383,14.31,73506.0,1.13,0.41,0.29,0,*7B
1505815287.68,56384,14.31,73504.5,1.13,0.17,0.17,0,*72
1505815288.91,56385,14.31,73504.5,1.11,0.29,0.37,0,*7E
1505815290.12,56386,14.31,73506.5,1.11,0.37,0.33,0,*76
1505815291.36,56387,14.31,73500.0,1.09,0.33,0.37,0,*7E
1505815292.57,56388,14.31,73504.3,1.11,0.37,0.41,0,*7D
1505815293.74,56389,14.31,73504.0,1.11,0.43,0.43,0,*7D
1505815294.96,56390,14.31,73506.5,1.13,0.41,0.43,0,*75
1505815296.16,56391,14.31,73508.5,1.11,0.41,0.43,0,*76
1505815297.36,56392,14.31,73508.5,1.11,0.41,0.43,0,*75
1505815298.52,56393,14.31,73504.0,1.11,0.43,0.43,0,*76
1505815299.74,56394,14.31,73504.8,1.11,0.17,0.29,0,*7C
1505815300.96,56395,14.31,73504.0,1.11,0.37,0.37,0,*70
1505815302.2,56396,14.31,73506.3,1.09,0.47,0.41,0,*7C
1505815303.4,56397,14.31,73508.0,1.11,0.55,0.43,0,*75
1505815304.6,56398,14.31,73508.0,1.11,0.43,0.51,0,*7E
1505815305.82,56399,14.31,73506.5,1.11,0.51,0.51,0,*7C
1505815307.04,56400,14.31,73508.0,1.11,0.41,0.41,0,*7B
1505815308.27,56401,14.31,73506.5,1.11,0.55,0.55,0,*7A
1505815309.49,56402,14.31,73510.3,1.11,0.79,0.79,0,*79
1505815310.72,56403,14.31,73506.5,1.11,0.87,0.87,0,*78
1505815311.96,56404,14.31,73508.0,1.13,0.67,0.67,0,*7D
1505815313.2,56405,14.31,73506.3,1.13,0.67,0.67,0,*7C
1505815314.45,56406,14.38,73508.3,1.13,0.75,0.75,0,*7F
1505815315.69,56407,14.38,73510.8,1.13,0.75,0.79,0,*72
1505815316.93,56408,14.31,73508.0,1.15,0.91,0.91,0,*77
1505815318.18,56409,14.31,73508.0,1.13,0.87,0.87,0,*70
1505815319.41,56410,14.38,73508.5,1.15,0.91,0.95,0,*7A
1505815320.64,56411,14.31,73508.0,1.15,0.71,0.71,0,*7F
1505815321.86,56412,14.38,73508.3,1.15,0.67,0.71,0,*7B
1505815323.09,56413,14.31,73506.3,1.15,0.79,0.71,0,*75
1505815324.33,56414,14.31,73500.5,1.13,0.75,0.79,0,*70
1505815325.55,56415,14.31,73504.8,1.15,0.71,0.79,0,*73
1505815326.77,56416,14.31,73508.0,1.15,0.67,0.67,0,*78
1505815327.98,56417,14.31,73508.0,1.15,0.67,0.67,0,*79
1505815329.21,56418,14.31,73510.3,1.15,0.83,0.83,0,*76
1505815330.44,56419,14.31,73508.8,1.15,0.83,0.83,0,*77
1505815331.66,56420,14.31,73508.3,1.15,0.95,0.95,0,*7D
1505815332.91,56421,14.31,73506.3,1.17,0.83,0.79,0,*7B
1505815334.16,56422,14.31,73506.0,1.17,0.91,0.95,0,*79
1505815335.41,56423,14.31,73506.8,1.17,0.83,0.91,0,*7F
1505815336.65,56424,14.31,73506.0,1.17,0.79,0.79,0,*7B
1505815337.9,56425,14.31,73508.0,1.17,0.59,0.59,0,*7A
1505815339.14,56426,14.38,73510.3,1.17,0.67,0.71,0,*7E
1505815340.38,56427,14.31,73508.5,1.21,0.47,0.51,0,*7A
1505815341.63,56428,14.31,73510.8,1.17,0.47,0.55,0,*74
1505815342.88,56429,14.31,73510.3,1.17,0.59,0.59,0,*76
1505815344.12,56430,14.38,73512.8,1.17,0.71,0.71,0,*7E
1505815345.37,56431,14.31,73508.0,1.17,0.55,0.55,0,*7F
1505815346.62,56432,14.31,73510.8,1.17,0.55,0.55,0,*7C
1505815347.82,56433,14.31,73510.8,1.17,-0.07,0.05,0,*52
1505815349.04,56434,14.31,73510.0,1.15,0.21,0.29,0,*70
1505815350.21,56435,14.31,73510.0,1.15,0.43,0.43,0,*79
1505815351.44,56436,14.31,73506.5,1.15,0.59,0.55,0,*76
1505815352.66,56437,14.31,73510.0,1.15,0.59,0.67,0,*76
1505815353.91,56438,14.31,73510.3,1.13,0.51,0.55,0,*76
1505815355.14,56439,14.31,73506.5,1.15,0.55,0.67,0,*74
1505815356.36,56440,14.31,73506.3,1.15,0.71,0.79,0,*73
1505815357.6,56441,14.31,73510.3,1.17,0.59,0.67,0,*75
1505815358.85,56442,14.31,73510.0,1.17,0.79,0.71,0,*73
1505815360.1,56443,14.31,73508.0,1.17,0.83,0.83,0,*7A
1505815361.35,56444,14.31,73508.0,1.17,0.79,0.91,0,*7B
1505815362.59,56445,14.31,73506.0,1.17,0.67,0.71,0,*7B
1505815363.82,56446,14.31,73508.5,1.17,0.67,0.79,0,*70
1505815365.07,56447,14.31,73506.5,1.17,0.55,0.59,0,*72
1505815366.31,56448,14.31,73510.5,1.15,0.55,0.59,0,*7F
1505815367.55,56449,14.31,73508.8,1.17,0.47,0.59,0,*7F
1505815368.8,56450,14.31,73514.3,1.17,0.71,0.71,0,*78
1505815370.05,56451,14.31,73508.5,1.17,0.83,0.83,0,*79
1505815371.29,56452,14.31,73510.5,1.21,0.83,0.83,0,*7F
1505815372.53,56453,14.31,73508.8,1.21,0.71,0.71,0,*7E
1505815373.78,56454,14.31,73508.0,1.21,0.51,0.59,0,*71
1505815375.02,56455,14.31,73508.5,1.21,0.63,0.71,0,*7B
1505815376.26,56456,14.31,73506.8,1.17,0.67,0.71,0,*79
1505815377.5,56457,14.31,73506.8,1.21,0.59,0.63,0,*73
1505815378.73,56458,14.31,73510.8,1.17,0.67,0.67,0,*70
1505815379.98,56459,14.31,73506.8,1.17,0.47,0.55,0,*72
1505815381.22,56460,14.31,73510.3,1.17,0.59,0.71,0,*71
1505815382.46,56461,14.31,73510.5,1.21,0.87,0.95,0,*7C
1505815383.66,56462,14.31,73512.0,1.21,0.97,1.05,0,*46
1505815384.86,56463,14.31,73512.3,1.21,0.97,1.05,0,*47
1505815386.1,56464,14.31,73510.8,1.21,1.05,1.09,0,*76
1505815387.33,56465,14.31,73512.3,1.21,1.05,1.09,0,*77
1505815388.57,56466,14.31,73512.5,1.21,0.71,0.83,0,*75
1505815389.79,56467,14.31,73514.3,1.21,0.87,0.97,0,*78
1505815390.97,56468,14.31,73510.8,1.23,0.97,1.01,0,*4A
1505815392.15,56469,14.31,73512.5,1.23,1.01,1.01,0,*75
1505815393.41,56470,14.31,73514.5,1.25,1.13,1.13,0,*7B
1505815394.67,56471,14.31,73512.5,1.25,1.13,1.13,0,*7A
1505815395.94,56472,14.31,73512.5,1.25,1.21,1.21,0,*79
1505815397.2,56473,14.31,73514.3,1.25,1.29,1.29,0,*78
1505815398.44,56474,14.31,73512.0,1.23,1.29,1.37,0,*76
1505815399.67,56475,14.31,73514.3,1.25,1.41,1.47,0,*78
1505815400.91,56476,14.31,73508.8,1.25,1.51,1.51,0,*7D
1505815402.17,56477,14.31,73510.0,1.29,1.63,1.67,0,*74
1505815403.4,56478,14.31,73510.3,1.27,1.55,1.63,0,*74
1505815404.65,56479,14.31,73512.3,1.29,1.51,1.67,0,*7B
1505815405.87,56480,14.31,73512.8,1.31,1.43,1.43,0,*71
1505815407.11,56481,14.31,73510.0,1.31,1.21,1.29,0,*78
1505815408.32,56482,14.31,73506.0,1.31,0.71,0.63,0,*70
1505815409.54,56483,14.31,73510.5,1.31,0.59,0.63,0,*7B
1505815410.76,56484,14.31,73508.0,1.27,0.71,0.83,0,*7F
1505815411.98,56485,14.31,73510.8,1.27,0.91,0.95,0,*77
1505815413.18,56486,14.31,73510.3,1.29,1.05,1.05,0,*7E
1505815414.37,56487,14.31,73510.8,1.27,1.05,1.05,0,*71
1505815415.6,56488,14.31,73508.0,1.27,0.91,0.91,0,*7E
1505815416.84,56489,14.31,73508.0,1.29,0.95,0.95,0,*71
1505815418.07,56490,14.31,73510.8,1.31,1.09,1.09,0,*70
1505815419.33,56491,14.31,73510.3,1.29,1.13,1.13,0,*78
1505815420.59,56492,14.31,73508.5,1.29,1.17,1.17,0,*7B
1505815421.85,56493,14.31,73510.3,1.29,1.17,1.17,0,*7A
1505815423.09,56494,14.31,73508.8,1.31,1.21,1.29,0,*7C
1505815424.33,56495,14.31,73508.8,1.31,1.21,1.21,0,*75
1505815425.57,56496,14.31,73508.0,1.31,1.21,1.21,0,*76
1505815426.83,56497,14.31,73512.8,1.33,1.29,1.29,0,*75
1505815428.09,56498,14.31,73510.8,1.33,1.29,1.29,0,*7A
1505815429.29,56499,14.38,73512.8,1.33,1.05,1.05,0,*7B
1505815430.47,56500,14.31,73504.0,1.35,0.97,1.01,0,*42
1505815431.71,56501,14.31,73510.8,1.33,0.87,0.87,0,*7B
1505815432.93,56502,14.31,73508.3,1.33,0.95,0.97,0,*7A
1505815434.11,56503,14.31,73504.5,1.31,1.05,1.05,0,*7B
1505815435.37,56504,14.31,73510.5,1.33,1.21,1.21,0,*7E
1505815436.61,56505,14.31,73512.8,1.31,1.33,1.37,0,*79
1505815437.88,56506,14.31,73510.0,1.33,1.37,1.33,0,*78
1505815439.08,56507,14.31,73510.0,1.35,1.41,1.37,0,*7A
1505815440.31,56508,14.31,73510.3,1.35,1.33,1.37,0,*70
1505815441.55,56509,14.31,73508.0,1.35,1.33,1.33,0,*75
1505815442.81,56510,14.31,73510.0,1.37,1.29,1.29,0,*7F
1505815444.05,56511,14.31,73508.8,1.35,1.21,1.25,0,*78
1505815445.31,56512,14.31,73508.8,1.37,1.29,1.37,0,*72
1505815446.54,56513,14.31,73512.8,1.35,1.09,1.21,0,*74
1505815447.8,56514,14.31,73510.8,1.37,1.29,1.29,0,*7B
1505815449.07,56515,14.31,73508.8,1.37,1.37,1.37,0,*7A
1505815450.33,56516,14.31,73514.3,1.37,1.37,1.37,0,*79
1505815451.59,56517,14.31,73510.8,1.37,1.37,1.37,0,*78
1505815452.85,56518,14.31,73512.0,1.37,1.25,1.29,0,*7B
1505815454.08,56519,14.31,73510.5,1.35,1.13,1.13,0,*74
1505815455.34,56520,14.31,73512.3,1.37,1.13,1.17,0,*78
1505815456.6,56521,14.31,73510.5,1.37,1.17,1.29,0,*70
1505815457.82,56522,14.31,73508.8,1.37,0.95,1.01,0,*42
1505815459.07,56523,14.31,73510.0,1.37,0.83,0.91,0,*7C
1505815460.3,56524,14.31,73506.3,1.37,1.05,1.13,0,*7F
1505815461.53,56525,14.31,73506.0,1.37,1.05,1.17,0,*7A
1505815462.74,56526,14.31,73510.8,1.39,0.67,0.71,0,*73
1505815463.96,56527,14.31,73508.5,1.39,0.63,0.67,0,*71
1505815465.17,56528,14.31,73508.3,1.39,0.71,0.79,0,*72
1505815466.4,56529,14.31,73508.5,1.39,0.83,0.91,0,*78
1505815467.65,56530,14.31,73508.8,1.37,0.71,0.83,0,*70
1505815468.88,56531,14.31,73512.0,1.37,0.67,0.67,0,*7C
1505815470.13,56532,14.31,73510.0,1.43,0.87,0.91,0,*7B
1505815471.35,56533,14.31,73508.8,1.39,0.95,0.95,0,*70
1505815472.53,56534,14.31,73510.3,1.39,1.01,1.01,0,*77
1505815473.77,56535,14.31,73510.5,1.39,1.13,1.17,0,*72
1505815475.04,56536,14.31,73508.5,1.43,1.33,1.33,0,*78
1505815476.3,56537,14.31,73510.3,1.43,1.09,1.09,0,*79
1505815477.52,56538,14.31,73508.0,1.39,0.71,0.71,0,*7B
1505815478.74,56539,14.31,73504.5,1.39,0.83,0.79,0,*7F
1505815479.99,56540,14.31,73508.5,1.43,0.83,0.83,0,*79
1505815481.22,56541,14.31,73508.8,1.39,0.83,0.83,0,*75
1505815482.45,56542,14.31,73508.0,1.43,1.05,1.09,0,*77
1505815483.68,56543,14.31,73508.8,1.39,0.91,0.83,0,*74
1505815484.91,56544,14.31,73508.0,1.39,0.79,0.79,0,*70
1505815486.15,56545,14.31,73510.5,1.43,0.75,0.75,0,*7C
1505815487.37,56546,14.31,73508.3,1.39,0.75,0.71,0,*76
1505815488.61,56547,14.31,73508.5,1.43,0.67,0.59,0,*73
1505815489.83,56548,14.31,73506.3,1.39,0.63,0.63,0,*7C
1505815491.05,56549,14.31,73504.8,1.39,0.91,0.95,0,*79
1505815492.27,56550,14.31,73506.5,1.39,0.95,0.95,0,*75
1505815493.49,56551,14.31,73504.8,1.37,0.95,1.01,0,*46
1505815494.71,56552,14.31,73504.8,1.37,0.95,1.01,0,*45
1505815495.93,56553,14.31,73506.5,1.39,0.95,0.95,0,*76
1505815497.14,56554,14.31,73508.8,1.39,0.95,0.95,0,*71
1505815498.38,56555,14.38,73508.8,1.39,1.13,1.17,0,*74
1505815499.65,56556,14.31,73508.3,1.43,1.21,1.21,0,*7E
1505815500.91,56557,14.31,73508.3,1.37,1.13,1.17,0,*78
1505815502.18,56558,14.31,73508.8,1.43,1.17,1.21,0,*75
1505815503.36,56559,14.31,73510.0,1.39,1.01,1.05,0,*78
1505815504.56,56560,14.31,73508.0,1.39,0.95,1.05,0,*4E
1505815505.79,56561,14.31,73504.8,1.39,0.83,0.91,0,*74
1505815507.0,56562,14.31,73510.5,1.39,0.67,0.79,0,*7B
1505815508.21,56563,14.31,73510.3,1.39,0.63,0.67,0,*71
1505815509.43,56564,14.31,73508.8,1.39,0.63,0.63,0,*72
1505815510.68,56565,14.31,73510.0,1.37,0.79,0.79,0,*7D
1505815511.91,56566,14.31,73508.3,1.37,0.63,0.63,0,*7E
1505815513.15,56567,14.31,73508.8,1.37,0.63,0.55,0,*7A
1505815514.39,56568,14.31,73512.8,1.37,0.33,0.29,0,*7B
1505815515.63,56569,14.31,73506.3,1.37,0.41,0.41,0,*71
1505815516.84,56570,14.31,73504.3,1.35,0.47,0.41,0,*7D
1505815518.05,56571,14.31,73508.0,1.35,0.67,0.79,0,*75
1505815519.29,56572,14.31,73506.8,1.37,0.91,0.95,0,*7F
1505815520.51,56573,14.31,73510.8,1.37,0.95,1.01,0,*46
1505815521.72,56574,14.31,73508.3,1.37,1.01,1.05,0,*79
1505815522.95,56575,14.31,73510.0,1.37,1.17,1.05,0,*7F
1505815524.15,56576,14.31,73510.8,1.35,1.01,1.09,0,*75
1505815525.38,56577,14.31,73514.3,1.37,1.05,1.17,0,*7D
1505815526.58,56578,14.31,73508.3,1.37,1.01,1.05,0,*75
1505815527.79,56579,14.31,73510.8,1.37,1.01,1.01,0,*70
1505815529.03,56580,14.31,73508.8,1.37,0.91,0.95,0,*72
1505815530.28,56581,14.31,73510.5,1.37,0.95,0.91,0,*73
1505815531.53,56582,14.31,73508.8,1.37,0.83,0.91,0,*77
1505815532.76,56583,14.31,73510.3,1.37,0.67,0.67,0,*75
1505815533.98,56584,14.31,73512.0,1.35,0.83,0.79,0,*75
1505815535.21,56585,14.31,73508.0,1.37,0.95,0.95,0,*73
1505815536.47,56586,14.31,73510.3,1.37,0.91,0.91,0,*70
1505815537.71,56587,14.31,73510.3,1.37,0.95,0.95,0,*71
1505815538.94,56588,14.31,73510.3,1.37,0.95,0.95,0,*7E
1505815540.19,56589,14.31,73510.8,1.37,0.95,0.91,0,*7B
1505815541.45,56590,14.31,73510.5,1.37,0.91,0.91,0,*77
1505815542.7,56591,14.31,73510.0,1.37,0.83,0.91,0,*75
1505815543.94,56592,14.31,73508.8,1.37,0.83,0.79,0,*70
1505815545.18,56593,14.31,73504.3,1.37,0.91,0.95,0,*70
1505815546.38,56594,14.31,73508.3,1.35,0.91,1.01,0,*49
1505815547.62,56595,14.31,73514.0,1.37,0.67,0.71,0,*75
1505815548.86,56596,14.31,73508.8,1.37,0.71,0.71,0,*71
1505815550.08,56597,14.31,73508.8,1.39,0.71,0.79,0,*76
1505815551.31,56598,14.31,73510.0,1.39,0.83,0.91,0,*72
1505815552.53,56599,14.31,73508.5,1.39,0.95,0.95,0,*70
1505815553.75,56600,14.31,73508.5,1.39,0.83,0.79,0,*76
1505815554.97,56601,14.31,73510.3,1.39,0.83,0.83,0,*72
1505815556.2,56602,14.31,73510.0,1.39,0.95,0.91,0,*75
1505815557.44,56603,14.31,73508.5,1.37,0.83,0.95,0,*79
1505815558.66,56604,14.31,73506.5,1.37,0.95,1.01,0,*45
1505815559.86,56605,14.31,73510.0,1.37,1.01,1.01,0,*78
1505815561.12,56606,14.31,73510.5,1.37,1.13,1.17,0,*7F
1505815562.35,56607,14.31,73508.8,1.37,1.01,1.13,0,*79
1505815563.61,56608,14.31,73512.8,1.37,0.91,0.91,0,*75
1505815564.84,56609,14.31,73508.3,1.37,0.95,0.95,0,*74
1505815566.08,56610,14.31,73508.8,1.39,0.91,0.91,0,*72
1505815567.33,56611,14.31,73510.5,1.43,0.79,0.91,0,*78
1505815568.56,56612,14.31,73510.8,1.39,0.83,0.83,0,*70
1505815569.78,56613,14.31,73514.0,1.39,0.95,0.83,0,*76
1505815570.98,56614,14.31,73512.8,1.39,1.01,0.95,0,*4A
1505815572.16,56615,14.31,73510.8,1.39,1.05,1.01,0,*73
1505815573.39,56616,14.31,73510.5,1.39,0.95,0.91,0,*70
1505815574.62,56617,14.31,73514.0,1.39,0.91,0.95,0,*71
1505815575.8,56618,14.31,73512.5,1.39,1.01,1.01,0,*7A
1505815577.01,56619,14.31,73510.8,1.39,1.05,1.17,0,*78
1505815578.19,56620,14.31,73514.5,1.39,1.01,1.01,0,*71
1505815579.37,56621,14.31,73512.5,1.39,1.05,1.01,0,*74
1505815580.61,56622,14.31,73514.3,1.39,1.17,1.17,0,*73
1505815581.85,56623,14.31,73510.3,1.39,1.17,1.13,0,*76
1505815583.11,56624,14.31,73510.3,1.43,1.17,1.17,0,*78
1505815584.37,56625,14.31,73510.5,1.43,1.21,1.21,0,*79
1505815585.64,56626,14.31,73510.8,1.43,1.17,1.21,0,*7F
1505815586.9,56627,14.31,73510.3,1.43,1.17,1.17,0,*7B
1505815588.14,56628,14.31,73512.5,1.43,1.09,1.05,0,*78
1505815589.36,56629,14.31,73510.5,1.39,0.95,0.91,0,*7C
1505815590.61,56630,14.31,73510.5,1.43,0.83,0.87,0,*79
1505815591.86,56631,14.31,73512.5,1.43,0.83,0.87,0,*78
1505815593.11,56632,14.31,73514.3,1.43,0.83,0.87,0,*7B
1505815594.35,56633,14.31,73512.5,1.43,0.71,0.71,0,*7E
1505815595.55,56634,14.31,73512.5,1.39,0.43,0.51,0,*77
1505815596.76,56635,14.31,73512.8,1.39,0.29,0.33,0,*7E
1505815597.98,56636,14.31,73514.3,1.37,0.43,0.51,0,*7B
1505815599.16,56637,14.31,73514.5,1.37,0.43,0.43,0,*79
1505815600.32,56638,14.31,73510.3,1.35,0.01,0.05,0,*70
1505815601.5,56639,14.31,73512.5,1.35,-0.11,-0.07,0,*42
1505815602.66,56640,14.31,73512.3,1.35,0.01,0.05,0,*7F
1505815603.86,56641,14.31,73514.5,1.33,-0.11,-0.03,0,*4F
1505815605.04,56642,14.31,73512.8,1.31,-0.11,-0.03,0,*4E
1505815606.24,56643,14.31,73516.5,1.31,0.09,0.21,0,*46
1505815607.44,56644,14.31,73514.8,1.33,0.43,0.33,0,*7E
1505815608.67,56645,14.31,73510.8,1.31,0.55,0.55,0,*7A
1505815609.89,56646,14.31,73512.8,1.31,0.59,0.55,0,*75
1505815611.08,56647,14.31,73510.5,1.33,0.43,0.43,0,*7A
1505815612.32,56648,14.31,73514.5,1.29,0.21,0.29,0,*76
1505815613.49,56649,14.31,73508.5,1.27,-0.03,0.05,0,*5A
1505815614.66,56650,14.31,73514.5,1.27,-0.03,0.09,0,*5E
1505815615.83,56651,14.31,73510.0,1.27,0.09,0.09,0,*78
1505815617.0,56652,14.31,73512.3,1.27,-0.03,0.09,0,*5C
1505815618.17,56653,14.31,73508.0,1.27,0.09,0.09,0,*7A
1505815619.36,56654,14.31,73510.0,1.27,-0.19,-0.15,0,*71
1505815620.57,56655,14.31,73510.0,1.25,-0.19,-0.11,0,*76
1505815621.76,56656,14.31,73510.0,1.25,0.01,0.05,0,*79
1505815622.96,56657,14.31,73512.5,1.25,-0.19,-0.07,0,*43
1505815624.15,56658,14.31,73508.0,1.25,0.05,0.05,0,*73
1505815625.37,56659,14.31,73508.0,1.23,0.29,0.29,0,*74
1505815626.59,56660,14.31,73510.3,1.23,0.41,0.47,0,*78
1505815627.82,56661,14.31,73508.0,1.23,0.47,0.47,0,*7F
1505815629.04,56662,14.31,73512.8,1.23,0.47,0.47,0,*7C
1505815630.27,56663,14.31,73512.3,1.23,0.47,0.47,0,*7D
1505815631.49,56664,14.31,73514.0,1.23,0.51,0.51,0,*7A
1505815632.71,56665,14.31,73508.8,1.23,0.41,0.41,0,*7B
1505815633.93,56666,14.31,73510.5,1.23,0.29,0.29,0,*78
1505815635.15,56667,14.31,73510.5,1.23,0.41,0.47,0,*7F
1505815636.37,56668,14.31,73510.8,1.23,0.41,0.47,0,*70
1505815637.59,56669,14.31,73510.3,1.23,0.41,0.41,0,*77
1505815638.81,56670,14.31,73508.0,1.23,0.41,0.47,0,*79
1505815640.04,56671,14.31,73510.0,1.23,0.55,0.55,0,*7E
1505815641.27,56672,14.31,73506.3,1.23,0.47,0.51,0,*7A
1505815642.49,56673,14.31,73508.3,1.23,0.47,0.47,0,*7C
1505815643.71,56674,14.31,73508.0,1.23,0.55,0.67,0,*7A
1505815644.93,56675,14.31,73508.0,1.23,0.67,0.55,0,*7B
1505815646.16,56676,14.31,73510.0,1.23,0.51,0.55,0,*7D
1505815647.39,56677,14.31,73512.3,1.25,0.67,0.67,0,*7E
1505815648.63,56678,14.31,73508.8,1.25,0.79,0.79,0,*71
1505815649.87,56679,14.31,73508.0,1.25,0.63,0.63,0,*70
1505815651.1,56680,14.31,73510.5,1.25,0.37,0.41,0,*77
1505815652.34,56681,14.31,73510.3,1.25,0.29,0.29,0,*77
1505815653.58,56682,14.31,73508.0,1.25,0.29,0.41,0,*7A
1505815654.8,56683,14.31,73508.8,1.23,0.47,0.47,0,*73
1505815656.03,56684,14.31,73510.5,1.23,0.55,0.63,0,*71
1505815657.26,56685,14.31,73512.3,1.25,0.67,0.67,0,*73
1505815658.5,56686,14.31,73508.8,1.25,0.51,0.51,0,*70
1505815659.75,56687,14.31,73508.0,1.25,0.51,0.51,0,*71
1505815660.97,56688,14.31,73508.3,1.23,0.47,0.51,0,*7F
1505815662.2,56689,14.31,73510.8,1.23,0.51,0.55,0,*7D
1505815663.42,56690,14.31,73510.5,1.23,0.55,0.51,0,*75
1505815664.65,56691,14.31,73510.3,1.23,0.51,0.55,0,*74
1505815665.89,56692,14.31,73510.3,1.25,0.51,0.51,0,*75
1505815667.13,56693,14.31,73512.3,1.25,0.41,0.41,0,*74
1505815668.37,56694,14.31,73510.3,1.25,0.47,0.47,0,*73
1505815669.6,56695,14.31,73512.5,1.23,0.47,0.51,0,*73
1505815670.82,56696,14.31,73510.8,1.23,0.51,0.55,0,*73
1505815672.05,56697,14.31,73508.8,1.23,0.51,0.55,0,*72
1505815673.28,56698,14.31,73508.5,1.23,0.55,0.55,0,*79
1505815674.53,56699,14.31,73508.5,1.25,0.55,0.55,0,*7E
1505815675.76,56700,14.31,73510.3,1.25,0.75,0.67,0,*7C
1505815676.98,56701,14.31,73510.5,1.23,0.75,0.75,0,*78
1505815678.2,56702,14.31,73510.5,1.23,0.67,0.75,0,*78
1505815679.43,56703,14.31,73512.3,1.25,0.67,0.75,0,*7F
1505815680.68,56704,14.31,73510.5,1.25,0.79,0.87,0,*7A
1505815681.92,56705,14.31,73510.5,1.25,0.75,0.79,0,*76
1505815683.15,56706,14.31,73514.0,1.25,0.63,0.67,0,*7D
1505815684.4,56707,14.31,73508.3,1.25,0.51,0.55,0,*7C
1505815685.62,56708,14.31,73512.5,1.23,0.47,0.51,0,*76
1505815686.86,56709,14.31,73512.8,1.25,0.29,0.37,0,*79
1505815688.1,56710,14.31,73514.8,1.25,0.37,0.41,0,*7F
1505815689.33,56711,14.31,73510.5,1.25,0.17,0.17,0,*7F
1505815690.55,56712,14.31,73510.5,1.23,0.37,0.37,0,*7A
1505815691.76,56713,14.31,73508.3,1.23,0.13,0.17,0,*7F
1505815692.98,56714,14.31,73510.0,1.23,0.29,0.25,0,*70
1505815694.19,56715,14.31,73510.8,1.21,0.09,0.13,0,*44
1505815695.41,56716,14.31,73514.5,1.17,-0.45,-0.37,0,*7C
1505815696.61,56717,14.31,73512.0,1.17,-0.15,-0.03,0,*4F
1505815697.79,56718,14.31,73512.5,1.21,0.01,0.09,0,*7A
1505815699.0,56719,14.31,73508.8,1.17,-0.15,-0.07,0,*45
1505815700.21,56720,14.31,73510.8,1.17,-0.07,-0.15,0,*4F
1505815701.4,56721,14.31,73512.3,1.17,-0.03,0.09,0,*5A
1505815702.6,56722,14.31,73514.8,1.13,-0.07,0.01,0,*51
1505815703.8,56723,14.31,73514.8,1.15,0.05,0.17,0,*4E
1505815704.99,56724,14.31,73510.5,1.15,0.05,0.17,0,*49
1505815706.22,56725,14.31,73514.8,1.15,0.21,0.21,0,*7B
1505815707.41,56726,14.31,73512.8,1.13,0.01,0.01,0,*7E
1505815708.65,56727,14.38,73518.3,1.13,0.37,0.37,0,*7F
1505815709.89,56728,14.31,73514.3,1.15,0.55,0.55,0,*76
1505815711.12,56729,14.31,73512.8,1.15,0.55,0.55,0,*77
1505815712.32,56730,14.31,73514.3,1.15,0.47,0.43,0,*7B
1505815713.57,56731,14.31,73514.8,1.13,0.55,0.51,0,*7C
1505815714.79,56732,14.31,73514.8,1.15,0.67,0.71,0,*7A
1505815715.99,56733,14.31,73512.5,1.15,0.43,0.47,0,*78
1505815717.2,56734,14.31,73514.0,1.17,0.43,0.55,0,*7E
1505815718.43,56735,14.31,73512.0,1.15,0.47,0.55,0,*79
1505815719.66,56736,14.31,73512.5,1.15,0.59,0.59,0,*79
1505815720.91,56737,14.31,73512.8,1.17,0.47,0.55,0,*79
1505815722.08,56738,14.31,73512.3,1.15,0.05,0.05,0,*77
1505815723.28,56739,14.31,73514.0,1.15,-0.45,-0.37,0,*73
1505815724.49,56740,14.31,73512.0,1.13,-0.49,-0.45,0,*72
1505815725.69,56741,14.31,73514.3,1.13,-0.33,-0.29,0,*74
1505815726.87,56742,14.31,73514.8,1.11,-0.29,-0.29,0,*7E
1505815728.08,56743,14.31,73514.0,1.09,-0.45,-0.33,0,*77
1505815729.31,56744,14.31,73514.8,1.09,-0.33,-0.23,0,*70
1505815730.5,56745,14.31,73510.5,1.11,-0.19,-0.19,0,*79
1505815731.69,56746,14.31,73514.0,1.11,0.01,0.13,0,*49
1505815732.94,56747,14.31,73508.8,1.09,0.25,0.21,0,*76
1505815734.12,56748,14.31,73510.0,1.09,0.01,0.09,0,*75